Time,TemperatureF,DewpointF,PressureIn,WindDirection,WindDirectionDegrees,WindSpeedMPH,WindSpeedGustMPH,Humidity,HourlyPrecipIn,Conditions,Clouds,dailyrainin,SoftwareType,DateUTC
2013-07-31 00:02:00,66.0,66.0,-100.00,North,5,0.0,0.0,99,-99.99,,,-99.99,,2013-07-31 05:02:00,
2013-07-31 00:11:00,66.0,66.0,-100.00,North,5,0.0,2.0,99,-99.99,,,-99.99,,2013-07-31 05:11:00,
2013-07-31 00:22:00,66.0,66.0,-100.00,North,5,0.0,2.0,99,-99.99,,,-99.99,,2013-07-31 05:22:00,
2013-07-31 00:42:00,66.0,66.0,-100.00,North,5,0.0,1.0,99,-99.99,,,-99.99,,2013-07-31 05:42:00,
2013-07-31 00:52:00,66.0,66.0,-100.00,North,5,0.0,1.0,99,-99.99,,,-99.99,,2013-07-31 05:52:00,
2013-07-31 01:12:00,66.0,66.0,-100.00,North,5,0.0,0.0,99,-99.99,,,-99.99,,2013-07-31 06:12:00,
2013-07-31 01:22:00,66.0,66.0,-100.00,North,5,0.0,0.0,99,-99.99,,,-99.99,,2013-07-31 06:22:00,
2013-07-31 01:53:00,66.0,65.0,-100.00,North,5,0.0,2.0,99,-99.99,,,-99.99,,2013-07-31 06:53:00,
2013-07-31 02:02:00,66.0,65.0,-100.00,North,5,0.0,0.0,99,-99.99,,,-99.99,,2013-07-31 07:02:00,
2013-07-31 02:22:00,66.0,66.0,-100.00,North,5,0.0,0.0,99,-99.99,,,-99.99,,2013-07-31 07:22:00,
2013-07-31 02:43:00,66.0,66.0,-100.00,North,5,0.0,1.0,99,-99.99,,,-99.99,,2013-07-31 07:43:00,
2013-07-31 02:52:00,66.0,66.0,-100.00,North,5,0.0,1.0,99,-99.99,,,-99.99,,2013-07-31 07:52:00,
2013-07-31 03:22:00,66.0,65.0,-100.00,North,5,0.0,1.0,99,-99.99,,,-99.99,,2013-07-31 08:22:00,
2013-07-31 03:42:00,66.0,65.0,-100.00,North,5,0.0,0.0,99,-99.99,,,-99.99,,2013-07-31 08:42:00,
2013-07-31 03:53:00,66.0,65.0,-100.00,North,5,0.0,0.0,99,-99.99,,,-99.99,,2013-07-31 08:53:00,
2013-07-31 04:02:00,65.0,65.0,-100.00,North,5,1.0,2.0,99,-99.99,,,-99.99,,2013-07-31 09:02:00,
2013-07-31 04:22:00,65.0,65.0,-100.00,North,5,0.0,1.0,99,-99.99,,,-99.99,,2013-07-31 09:22:00,
2013-07-31 04:43:00,65.0,65.0,-100.00,North,5,0.0,0.0,99,-99.99,,,-99.99,,2013-07-31 09:43:00,
2013-07-31 04:52:00,65.0,65.0,-100.00,North,5,0.0,0.0,99,-99.99,,,-99.99,,2013-07-31 09:52:00,
2013-07-31 05:22:00,65.0,65.0,-100.00,North,5,0.0,1.0,99,-99.99,,,-99.99,,2013-07-31 10:22:00,
2013-07-31 05:32:00,65.0,65.0,-100.00,North,5,0.0,1.0,99,-99.99,,,-99.99,,2013-07-31 10:32:00,
2013-07-31 05:44:00,65.0,65.0,-100.00,North,5,0.0,1.0,99,-99.99,,,-99.99,,2013-07-31 10:44:00,
2013-07-31 05:52:00,65.0,65.0,-100.00,North,5,0.0,1.0,99,-99.99,,,-99.99,,2013-07-31 10:52:00,
2013-07-31 06:03:00,65.0,65.0,-100.00,North,5,0.0,1.0,99,-99.99,,,-99.99,,2013-07-31 11:03:00,
2013-07-31 06:12:00,65.0,65.0,-100.00,North,5,0.0,1.0,99,-99.99,,,-99.99,,2013-07-31 11:12:00,
2013-07-31 06:22:00,65.0,65.0,-100.00,North,5,0.0,1.0,99,-99.99,,,-99.99,,2013-07-31 11:22:00,
2013-07-31 06:33:00,65.0,65.0,-100.00,North,5,0.0,0.0,99,-99.99,,,-99.99,,2013-07-31 11:33:00,
2013-07-31 06:43:00,65.0,65.0,-100.00,North,5,0.0,0.0,99,-99.99,,,-99.99,,2013-07-31 11:43:00,
2013-07-31 06:53:00,65.0,65.0,-100.00,North,5,0.0,0.0,99,-99.99,,,-99.99,,2013-07-31 11:53:00,
2013-07-31 07:02:00,65.0,65.0,-100.00,North,5,0.0,1.0,99,-99.99,,,-99.99,,2013-07-31 12:02:00,
2013-07-31 07:22:00,65.0,65.0,-100.00,North,5,0.0,2.0,99,-99.99,,,-99.99,,2013-07-31 12:22:00,
2013-07-31 07:43:00,65.0,65.0,-100.00,North,5,0.0,1.0,99,-99.99,,,-99.99,,2013-07-31 12:43:00,
2013-07-31 07:53:00,65.0,65.0,-100.00,North,5,0.0,1.0,99,-99.99,,,-99.99,,2013-07-31 12:53:00,
2013-07-31 08:12:00,65.0,65.0,-100.00,North,5,0.0,0.0,99,-99.99,,,-99.99,,2013-07-31 13:12:00,
2013-07-31 08:22:00,65.0,65.0,-100.00,North,5,0.0,0.0,99,-99.99,,,-99.99,,2013-07-31 13:22:00,
2013-07-31 08:43:00,65.0,65.0,-100.00,North,5,0.0,0.0,99,-99.99,,,-99.99,,2013-07-31 13:43:00,
2013-07-31 08:53:00,65.0,65.0,-100.00,North,5,0.0,0.0,99,-99.99,,,-99.99,,2013-07-31 13:53:00,
2013-07-31 09:02:00,66.0,65.0,-100.00,North,5,0.0,0.0,99,-99.99,,,-99.99,,2013-07-31 14:02:00,
2013-07-31 09:12:00,66.0,66.0,-100.00,North,5,0.0,1.0,99,-99.99,,,-99.99,,2013-07-31 14:12:00,
2013-07-31 09:23:00,66.0,66.0,-100.00,North,5,0.0,1.0,99,-99.99,,,-99.99,,2013-07-31 14:23:00,
2013-07-31 09:43:00,67.0,66.0,-100.00,North,5,0.0,1.0,99,-99.99,,,-99.99,,2013-07-31 14:43:00,
2013-07-31 09:53:00,67.0,66.0,-100.00,North,5,0.0,1.0,99,-99.99,,,-99.99,,2013-07-31 14:53:00,
2013-07-31 10:22:00,68.0,67.0,-100.00,North,5,0.0,0.0,99,-99.99,,,-99.99,,2013-07-31 15:22:00,
2013-07-31 10:53:00,68.0,68.0,-100.00,North,5,0.0,1.0,99,-99.99,,,-99.99,,2013-07-31 15:53:00,
2013-07-31 11:22:00,69.0,69.0,-100.00,North,5,0.0,0.0,99,-99.99,,,-99.99,,2013-07-31 16:22:00,
2013-07-31 11:44:00,69.0,68.0,-100.00,North,5,0.0,0.0,95,-99.99,,,-99.99,,2013-07-31 16:44:00,
2013-07-31 11:52:00,69.0,68.0,-100.00,North,5,0.0,0.0,95,-99.99,,,-99.99,,2013-07-31 16:52:00,
2013-07-31 12:02:00,70.0,67.0,-100.00,North,0,0.0,0.0,90,-99.99,,,-99.99,,2013-07-31 17:02:00,
2013-07-31 12:13:00,70.0,67.0,-100.00,North,0,0.0,3.0,89,-99.99,,,-99.99,,2013-07-31 17:13:00,
2013-07-31 12:22:00,70.0,67.0,-100.00,North,0,0.0,3.0,89,-99.99,,,-99.99,,2013-07-31 17:22:00,
2013-07-31 12:43:00,72.0,66.0,-100.00,North,0,0.0,0.0,83,-99.99,,,-99.99,,2013-07-31 17:43:00,
2013-07-31 12:53:00,72.0,66.0,-100.00,North,0,0.0,0.0,83,-99.99,,,-99.99,,2013-07-31 17:53:00,
2013-07-31 13:02:00,74.0,67.0,-100.00,North,0,0.0,0.0,79,-99.99,,,-99.99,,2013-07-31 18:02:00,
2013-07-31 13:22:00,75.0,66.0,-100.00,North,0,0.0,0.0,74,-99.99,,,-99.99,,2013-07-31 18:22:00,
2013-07-31 13:52:00,76.0,65.0,-100.00,North,0,0.0,1.0,68,-99.99,,,-99.99,,2013-07-31 18:52:00,
2013-07-31 14:22:00,76.0,65.0,-100.00,North,5,0.0,0.0,70,-99.99,,,-99.99,,2013-07-31 19:22:00,
2013-07-31 14:33:00,77.0,65.0,-100.00,North,5,0.0,0.0,68,-99.99,,,-99.99,,2013-07-31 19:33:00,
2013-07-31 14:43:00,76.0,66.0,-100.00,North,5,0.0,1.0,69,-99.99,,,-99.99,,2013-07-31 19:43:00,
2013-07-31 14:53:00,76.0,66.0,-100.00,North,5,0.0,1.0,69,-99.99,,,-99.99,,2013-07-31 19:53:00,
2013-07-31 15:12:00,80.0,64.0,-100.00,North,5,1.0,4.0,60,-99.99,,,-99.99,,2013-07-31 20:12:00,
2013-07-31 15:22:00,80.0,64.0,-100.00,North,5,1.0,4.0,60,-99.99,,,-99.99,,2013-07-31 20:22:00,
2013-07-31 15:43:00,81.0,64.0,-100.00,North,5,0.0,1.0,57,-99.99,,,-99.99,,2013-07-31 20:43:00,
2013-07-31 15:53:00,81.0,64.0,-100.00,North,5,0.0,1.0,57,-99.99,,,-99.99,,2013-07-31 20:53:00,
2013-07-31 16:13:00,81.0,64.0,-100.00,North,5,2.0,5.0,58,-99.99,,,-99.99,,2013-07-31 21:13:00,
2013-07-31 16:22:00,81.0,64.0,-100.00,North,5,2.0,5.0,58,-99.99,,,-99.99,,2013-07-31 21:22:00,
2013-07-31 16:43:00,80.0,65.0,-100.00,North,5,0.0,6.0,61,-99.99,,,-99.99,,2013-07-31 21:43:00,
2013-07-31 16:53:00,80.0,65.0,-100.00,North,5,0.0,6.0,61,-99.99,,,-99.99,,2013-07-31 21:53:00,
2013-07-31 17:22:00,78.0,65.0,-100.00,North,5,1.0,6.0,64,-99.99,,,-99.99,,2013-07-31 22:22:00,
2013-07-31 17:43:00,79.0,66.0,-100.00,North,5,1.0,5.0,65,-99.99,,,-99.99,,2013-07-31 22:43:00,
2013-07-31 17:53:00,79.0,66.0,-100.00,North,5,1.0,5.0,65,-99.99,,,-99.99,,2013-07-31 22:53:00,
2013-07-31 18:12:00,78.0,67.0,-100.00,North,5,2.0,6.0,69,-99.99,,,-99.99,,2013-07-31 23:12:00,
2013-07-31 18:22:00,78.0,67.0,-100.00,North,5,2.0,6.0,69,-99.99,,,-99.99,,2013-07-31 23:22:00,
2013-07-31 18:32:00,79.0,67.0,-100.00,North,5,6.0,14.0,66,-99.99,,,-99.99,,2013-07-31 23:32:00,
2013-07-31 18:42:00,79.0,67.0,-100.00,North,5,5.0,11.0,67,-99.99,,,-99.99,,2013-07-31 23:42:00,
2013-07-31 18:52:00,79.0,67.0,-100.00,North,5,5.0,11.0,67,-99.99,,,-99.99,,2013-07-31 23:52:00,
2013-07-31 19:02:00,78.0,67.0,-100.00,North,5,0.0,1.0,70,-99.99,,,-99.99,,2013-08-01 00:02:00,
2013-07-31 19:12:00,78.0,66.0,-100.00,North,5,0.0,3.0,67,-99.99,,,-99.99,,2013-08-01 00:12:00,
2013-07-31 19:22:00,78.0,66.0,-100.00,North,5,0.0,3.0,67,-99.99,,,-99.99,,2013-08-01 00:22:00,
2013-07-31 19:32:00,78.0,66.0,-100.00,North,5,0.0,2.0,68,-99.99,,,-99.99,,2013-08-01 00:32:00,
2013-07-31 19:43:00,77.0,67.0,-100.00,North,5,0.0,4.0,72,-99.99,,,-99.99,,2013-08-01 00:43:00,
2013-07-31 19:52:00,77.0,67.0,-100.00,North,5,0.0,4.0,72,-99.99,,,-99.99,,2013-08-01 00:52:00,
2013-07-31 20:02:00,75.0,68.0,-100.00,North,5,0.0,1.0,78,-99.99,,,-99.99,,2013-08-01 01:02:00,
2013-07-31 20:12:00,75.0,68.0,-100.00,North,5,0.0,1.0,80,-99.99,,,-99.99,,2013-08-01 01:12:00,
2013-07-31 20:22:00,75.0,68.0,-100.00,North,5,0.0,1.0,80,-99.99,,,-99.99,,2013-08-01 01:22:00,
2013-07-31 20:33:00,74.0,68.0,-100.00,North,5,0.0,0.0,82,-99.99,,,-99.99,,2013-08-01 01:33:00,
2013-07-31 20:43:00,73.0,68.0,-100.00,North,5,0.0,0.0,85,-99.99,,,-99.99,,2013-08-01 01:43:00,
2013-07-31 20:53:00,73.0,68.0,-100.00,North,5,0.0,0.0,85,-99.99,,,-99.99,,2013-08-01 01:53:00,
2013-07-31 21:02:00,72.0,68.0,-100.00,North,5,0.0,0.0,86,-99.99,,,-99.99,,2013-08-01 02:02:00,
2013-07-31 21:12:00,72.0,68.0,-100.00,North,5,0.0,0.0,89,-99.99,,,-99.99,,2013-08-01 02:12:00,
2013-07-31 21:22:00,72.0,68.0,-100.00,North,5,0.0,0.0,89,-99.99,,,-99.99,,2013-08-01 02:22:00,
2013-07-31 21:32:00,71.0,68.0,-100.00,North,5,0.0,0.0,90,-99.99,,,-99.99,,2013-08-01 02:32:00,
2013-07-31 21:43:00,70.0,68.0,-100.00,North,5,0.0,0.0,92,-99.99,,,-99.99,,2013-08-01 02:43:00,
2013-07-31 21:53:00,70.0,68.0,-100.00,North,5,0.0,0.0,92,-99.99,,,-99.99,,2013-08-01 02:53:00,
2013-07-31 22:02:00,70.0,68.0,-100.00,North,5,0.0,1.0,93,-99.99,,,-99.99,,2013-08-01 03:02:00,
2013-07-31 22:12:00,70.0,68.0,-100.00,North,5,0.0,0.0,94,-99.99,,,-99.99,,2013-08-01 03:12:00,
2013-07-31 22:22:00,70.0,68.0,-100.00,North,5,0.0,0.0,94,-99.99,,,-99.99,,2013-08-01 03:22:00,
2013-07-31 22:43:00,69.0,68.0,-100.00,North,5,0.0,0.0,95,-99.99,,,-99.99,,2013-08-01 03:43:00,
2013-07-31 22:53:00,69.0,68.0,-100.00,North,5,0.0,0.0,95,-99.99,,,-99.99,,2013-08-01 03:53:00,
2013-07-31 23:12:00,68.0,67.0,-100.00,North,5,0.0,0.0,97,-99.99,,,-99.99,,2013-08-01 04:12:00,
2013-07-31 23:22:00,68.0,67.0,-100.00,North,5,0.0,0.0,97,-99.99,,,-99.99,,2013-08-01 04:22:00,
2013-07-31 23:43:00,67.0,67.0,-100.00,North,5,0.0,0.0,98,-99.99,,,-99.99,,2013-08-01 04:43:00,
2013-07-31 23:53:00,67.0,67.0,-100.00,North,5,0.0,0.0,98,-99.99,,,-99.99,,2013-08-01 04:53:00,